SCP
0 0 0 0 0 0 0 0 0 0 0 0 0 0 0 0 0 0 0 0 0 0 0 0 0 0 0 0 0 0 0 0 0 0 0 0 0 0 0 0 0 0 0
0 0 0 0 0 0 0 0 0 0 0 0 0 0 0 0 0 0 0 0 0 0 0 0 0 0 0 0 0 0 0 0 0 0 0 0 0 0 0 0 0 0 0
0 0 0 0 0 0 0 0 0 0 0 0 0 0 0 0 0 0 0 0 0 0 0 0 0 0 0 0 0 0 0 0 0 0 0 0 0 0 0 0 0 -0 -0
0 0 0 0 0 0 0 0 0 0 0 0 0 0 0 0 0 0 0 0 0 0 0 0 0 0 0 0 0 0 0 0 0 0 0 0 0 0 0 0 0 0 0
0 0 0 0 0 0 0 0 0 0 0 0 0 0 0 0 0 0 0 0 0 0 0 0 0 0 0 0 0 0 0 0 0 0 0 0 0 0 0 0 0 0 0
0 0 0 0 0 0 0 0 0 0 0 0 0 0 0 0 0 0 0 0 0 0 0 0 0 0 0 0 0 0 0 0 0 0 0 0 0 0 0 0 0 0 0
0 0 0 0 0 0 0 0 0 0 0 0 0 0 0 0 0 0 0 0 0 0 0 0 0 0 0 0 0 0 0 0 0 0 0 0 0 0 0 0 0 0 0
0 0 0 0 0 0 0 0 0 0 0 0 0 0 0 0 0 0 0 0 0 0 0 0 0 0 0 0 0 0 0 0 0 0 0 0 0 0 0 0 0 0 0
0 0 0 0 0 0 0 0 0 0 0 0 0 0 0 0 0 0 0 0 0 0 0 0 0 0 0 0 0 0 0 0 0 0 0 0 0 0 0 0 0 0 0
0 0 0 0 0 0 0 0 0 0 0 0 0 0 0 0 0 0 0 0 0 0 0 0 0 0 0 0 0 0 0 0 0 0 0 0 0 0 0 0 0 0 0
0 0 0 0 0 0 0 0 0 0 0 0 0 0 0 0 0 0 0 0 0 0 0 0 0 0 0 0 0 0 0 0 0 0 0 0 0 0 0 0 0 0 0
0 0 0 0 0 0 0 0 0 0 0 0 0 0 0 0 0 0 0 0 0 0 0 0 0 0 0 0 0 0 0 0 0 0 0 0 0 0 0 0 0 0 0
0 0 0 0 0 0 0 0 0 0 0 0 0 0 0 0 0 0 0 0 0 0 0 0 0 0 0 0 0 0 0 0 0 0 0 0 0 0 0 0 0 0 0
0 0 0 0 0 0 0 0 0 0 0 0 0 0 0 0 0 0 0 0 0 0 0 0 0 0 0 0 0 0 0 0 0 0 0 0 0 0 0 0 0 0 0
0 0 0 0 0 0 0 0 0 0 0 0 0 0 0 0 0 0 0 0 0 0 0 0 0 0 0 0 0 0 0 0 0 0 0 0 0 0 0 0 0 0 0
0 0 0 0 0 0 0 0 0 0 0 0 0 0 0 0 0 0 0 0 0 0 0 0 0 0 0 0 0 0 0 0 0 0 0 0 0 0 0 0 0 0 0
0 0 0 0 0 0 0 0 0 0 0 0 0 0 0 0 0 0 0 0 0 0 0 0 0 0 0 0 0 0 0 0 0 0 0 0 0 0 0 0 0 0 0
0 0 0 0 0 0 0 0 0 0 0 0 0 0 0 0 0 0 0 0 0 0 0 0 0 0 0 0 0 0 0 0 0 0 0 0 0 0 0 0 0 0 0
0 0 0 0 0 0 0 0 0 0 0 0 0 0 0 0 0 0 0 0 0 0 0 0 0 0 0 0 0 0 0 0 0 0 0 0 0 0 0 0 0 0 0
0 0 0 0 0 0 0 0 0 0 0 0 0 0 0 0 0 0 0 0 0 0 0 0 0 0 0 0 0 0 0 0 0 0 0 0 0 0 0 0 0 0 0
0 0 0 0 0 0 0 0 0 0 0 0 0 0 0 0 0 0 0 0 0 0 0 0 0 0 0 0 0 0 0 0 0 0 0 0 0 0 0 0 0 0 0
0 0 0 0 0 0 0 0 0 0 0 0 0 0 0 0 0 0 0 0 0 0 0 0 0 0 0 0 0 0 0 0 0 0 0 0 0 0 0 0 0 0 0
0 0 0 0 0 0 0 0 0 0 0 0 0 0 0 0 0 0 0 0 0 0 0 0 0 0 0 0 0 0 0 0 0 0 0 0 0 0 0 0 0 0 0
0 0 0 0 0 0 0 0 0 0 0 0 0 0 0 0 0 0 0 0 0 0 0 0 0 0 0 0 0 0 0 0 0 0 0 0 0 0 0 0 0 0 0
0 0 0 0 0 0 0 0 0 0 0 0 0 0 0 0 0 0 0 0 0 0 0 0 0 0 0 0 0 0 0 0 0 0 0 0 0 0 0 0 0 0 0
0 0 0 0 0 0 0 0 0 0 0 0 0 0 0 0 0 0 0 0 0 0 0 0 0 0 0 0 0 0 0 0 0 0 0 0 0 0 -0 0 0 0 0
Wind_Speed_500mb
23 24 25 28 29 30 31 31 33 33 33 32 32 31 28 26 26 27 27 26 26 25 24 19 16 17 18 22 26 31 36 40 42 42 44 45 46 46 49 51 53 50 53
27 28 28 30 33 34 33 33 35 36 37 38 36 35 33 32 32 32 31 29 26 24 19 15 16 18 24 28 32 36 38 38 38 34 35 33 38 41 43 52 58 55 60
37 38 38 38 37 37 37 37 37 38 39 39 40 37 38 36 37 34 28 25 20 12 13 17 20 27 29 28 27 29 31 36 38 35 38 32 32 29 34 39 42 41 75
49 51 52 50 44 42 41 45 43 43 44 42 38 36 36 36 34 27 22 18 16 16 21 28 30 32 29 31 33 31 29 26 33 34 35 30 31 30 29 35 32 35 46
55 58 60 58 52 49 45 42 49 48 48 46 43 40 35 35 33 29 27 26 31 36 37 35 34 33 33 34 36 34 41 43 39 32 28 28 27 28 29 30 30 29 34
58 62 64 61 54 53 47 42 46 44 44 44 46 45 44 40 37 35 37 41 43 43 39 39 40 36 30 26 29 34 34 35 30 27 25 25 27 31 35 34 34 33 32
63 59 57 56 54 55 50 44 47 49 47 44 48 51 50 48 47 44 43 42 37 30 24 29 26 25 26 26 24 25 25 23 24 24 26 28 30 30 30 33 35 38 40
57 54 51 50 50 50 48 46 46 48 47 47 47 46 40 43 43 41 36 29 19 26 22 27 27 28 30 23 23 27 28 25 25 25 27 29 30 32 31 30 34 36 37
54 50 45 43 44 46 47 45 48 48 48 46 43 42 18 21 22 25 19 19 27 27 28 29 27 21 17 17 21 21 20 20 21 21 20 19 18 19 22 24 27 28 30
47 42 37 36 40 43 42 46 49 50 47 45 43 45 48 47 21 17 31 33 32 28 26 24 22 19 19 21 22 22 18 12 9 10 12 15 18 21 23 25 27 29 31
40 34 32 34 38 41 46 46 48 49 52 48 47 49 47 45 51 38 32 37 39 37 30 25 22 22 21 18 13 6 2 4 8 12 14 17 20 22 24 26 29 30 31
33 28 28 32 36 39 41 43 50 54 52 48 51 45 41 45 47 43 37 48 47 35 32 28 23 18 15 11 9 6 2 4 7 10 13 17 21 24 26 28 30 31 33
30 30 33 35 37 39 43 40 40 43 39 39 41 41 42 48 51 48 53 57 48 36 29 30 23 17 13 11 8 5 4 3 6 10 14 18 20 23 26 27 29 30 32
35 35 35 37 38 39 37 41 46 48 48 52 52 55 49 45 49 47 52 53 38 39 40 35 30 21 17 15 12 7 4 1 5 9 13 16 22 26 30 34 35 35 37
42 42 42 43 45 47 49 51 54 58 59 55 54 51 45 44 43 44 46 47 48 44 47 45 34 33 24 17 12 8 5 3 6 11 15 18 22 25 28 31 33 35 36
47 48 50 51 50 51 53 53 53 50 46 45 43 42 41 42 43 42 43 46 47 47 44 46 46 36 28 21 16 12 8 5 6 11 15 18 22 25 29 30 33 34 38
50 51 51 52 51 50 48 46 43 42 41 41 40 40 41 40 40 39 39 40 44 47 41 48 47 38 30 25 19 13 9 7 7 11 15 18 22 27 30 34 37 40 42
55 53 53 54 51 48 46 44 43 42 43 44 44 43 43 42 41 39 38 39 42 45 41 43 47 39 31 26 21 15 11 10 11 13 17 21 26 29 31 34 37 40 42
59 58 59 56 52 49 48 47 46 46 46 46 45 44 43 42 43 43 44 44 44 43 42 43 44 39 33 29 22 16 12 9 10 10 12 18 20 24 27 30 35 38 41
66 63 62 57 55 55 54 53 51 49 49 48 48 47 46 45 46 47 48 47 45 44 42 40 40 38 33 28 23 18 13 12 12 10 13 19 21 23 25 29 33 36 40
71 69 66 62 60 60 59 57 54 53 52 51 50 50 50 51 52 51 49 47 44 42 40 38 36 34 29 24 20 17 13 15 21 13 14 23 23 21 25 30 31 34 38
76 74 71 67 64 63 60 59 57 55 54 54 54 52 52 51 52 51 51 46 41 38 37 34 31 29 25 22 19 17 16 17 21 27 25 25 24 19 28 32 32 33 35
80 79 75 71 69 67 62 63 59 57 56 55 54 53 51 49 47 42 45 41 36 34 33 30 29 27 21 17 17 16 18 21 25 31 32 30 20 23 29 31 28 23 36
85 82 78 75 72 69 66 69 64 58 57 56 53 51 49 50 48 43 39 36 35 32 29 28 25 21 17 14 15 15 18 20 27 30 35 27 37 36 34 25 16 20 46
82 84 79 75 74 69 69 71 67 60 58 59 58 54 49 47 43 42 43 40 37 31 27 24 21 17 16 13 15 17 19 20 25 32 30 38 44 50 37 20 17 47 46
70 78 79 77 74 69 68 71 68 59 61 62 60 56 53 47 42 43 42 42 36 32 29 25 19 15 16 17 19 19 22 24 25 27 27 39 42 49 30 21 44 47 43
Wind_Direction_500mb
282 280 282 280 281 277 276 275 274 273 274 275 276 278 279 281 282 282 282 283 287 292 295 303 308 300 306 302 297 293 291 293 293 294 293 292 290 291 295 291 289 288 285
285 284 283 282 279 276 275 273 271 271 272 272 274 277 278 277 277 277 279 283 287 291 301 300 289 293 291 289 290 294 294 299 301 304 303 302 298 289 291 293 289 286 286
283 282 281 279 278 274 272 272 272 273 273 273 274 274 274 274 274 278 282 287 290 300 298 284 282 284 281 283 286 285 296 295 298 296 301 298 303 308 311 306 307 304 279
279 278 278 278 277 271 270 267 271 274 276 281 288 286 286 285 290 287 285 304 307 286 266 268 273 278 282 289 291 293 296 293 292 296 301 304 302 309 317 327 326 321 318
279 278 276 275 270 263 262 266 271 269 272 274 278 281 283 286 288 286 282 278 274 269 267 266 264 266 269 271 284 287 283 287 293 303 308 313 315 314 311 316 323 329 329
280 278 276 273 265 258 259 256 267 274 274 275 276 274 275 277 276 276 272 268 270 269 267 264 268 273 270 266 274 274 277 291 298 305 313 315 316 316 316 317 318 320 319
284 281 276 270 263 255 255 257 258 263 269 276 270 272 273 270 267 270 270 267 267 264 241 260 249 252 259 260 274 285 296 298 299 305 312 315 316 319 315 314 314 314 323
284 279 274 266 260 255 256 261 261 262 262 265 267 273 274 277 266 269 264 250 223 223 226 219 225 243 263 268 275 287 293 294 295 303 307 311 317 313 316 311 316 320 322
283 278 270 259 253 248 254 257 258 260 267 269 265 262 254 238 246 235 221 228 222 222 220 229 246 241 251 268 280 292 295 297 307 312 320 332 339 345 351 352 349 348 346
282 276 268 258 252 252 248 251 255 256 258 262 268 267 265 257 214 179 163 184 199 216 221 226 226 239 257 271 281 285 292 311 336 355 358 3 9 9 7 4 1 357 354
278 271 263 259 256 253 253 256 257 257 263 261 258 264 266 262 240 229 185 199 199 197 202 218 228 240 256 268 279 276 308 357 13 20 19 18 16 13 10 7 6 3 2
277 268 259 256 258 260 261 259 263 261 257 260 256 252 256 244 240 234 219 197 200 188 197 208 224 239 243 239 214 191 147 49 26 16 12 16 13 11 10 9 8 8 5
279 264 262 262 264 268 264 257 264 261 260 257 263 261 260 254 254 241 232 207 197 198 202 216 217 214 215 206 189 170 145 72 28 14 12 12 6 5 6 8 9 10 6
277 273 267 262 265 272 262 264 264 267 268 269 268 262 258 254 252 242 229 219 203 201 208 216 211 207 202 200 193 182 164 74 15 10 8 7 3 3 2 3 3 3 358
283 279 274 267 263 263 264 263 263 263 262 260 256 253 245 244 242 237 234 225 224 213 211 214 210 208 205 203 203 200 221 292 348 356 357 360 360 0 360 359 357 355 353
276 276 274 273 269 266 264 263 261 259 254 250 248 247 246 244 243 240 234 229 226 226 214 210 206 202 201 203 212 222 239 290 336 339 342 348 351 353 354 353 349 347 345
273 272 272 269 267 265 264 261 256 253 250 249 248 246 244 242 239 236 229 223 217 217 219 205 200 199 200 206 215 222 242 279 318 335 333 343 351 349 350 345 343 342 341
272 272 269 266 263 261 258 255 252 251 251 250 249 246 242 240 236 232 225 215 208 208 210 204 198 200 204 213 220 229 250 285 315 322 325 336 343 342 341 337 334 334 331
270 270 266 264 261 257 255 253 253 253 253 252 250 247 245 241 236 228 220 213 207 206 207 206 202 203 209 216 222 227 241 266 292 308 317 326 332 333 328 325 327 326 323
270 268 265 261 258 256 254 254 254 253 252 250 247 244 241 238 235 230 224 216 211 208 206 205 206 208 215 223 228 230 240 269 290 292 312 325 328 323 316 318 320 320 317
269 267 263 259 256 255 255 256 254 251 249 247 244 241 238 236 233 229 225 221 218 214 211 211 212 214 221 233 244 256 276 300 304 305 317 318 323 319 314 316 317 317 317
267 264 261 258 256 255 255 254 251 249 246 242 240 238 237 237 235 231 229 226 226 224 221 219 221 223 227 240 261 283 302 308 310 303 319 313 317 310 317 316 318 318 317
264 263 261 258 256 255 254 252 248 245 242 241 241 239 237 234 232 230 232 228 225 226 227 230 231 234 236 248 268 289 308 316 314 310 318 324 315 323 320 318 316 315 327
264 262 259 256 254 252 250 250 246 241 239 238 237 234 236 239 237 231 231 225 225 226 225 227 230 239 248 259 275 296 311 323 321 317 325 326 323 334 335 324 317 327 336
265 262 261 258 254 250 248 248 246 240 237 234 233 231 229 232 231 230 237 235 230 228 232 236 238 248 267 284 291 305 312 315 321 318 325 327 327 332 336 318 318 335 337
270 265 261 257 253 248 243 244 245 236 233 229 226 227 229 226 235 237 234 234 233 232 233 238 246 258 276 285 294 305 311 317 325 317 313 324 326 334 332 305 321 329 335
Wind_Speed_850mb
23 24 25 28 29 30 31 31 33 33 33 32 32 31 28 26 26 27 27 26 26 25 24 19 16 17 18 22 26 31 36 40 42 42 44 45 46 46 49 51 53 50 53
27 28 28 30 33 34 33 33 35 36 37 38 36 35 33 32 32 32 31 29 26 24 19 15 16 18 24 28 32 36 38 38 38 34 35 33 38 41 43 52 58 55 60
37 38 38 38 37 37 37 37 37 38 39 39 40 37 38 36 37 34 28 25 20 12 13 17 20 27 29 28 27 29 31 36 38 35 38 32 32 29 34 39 42 41 75
49 51 52 50 44 42 41 45 43 43 44 42 38 36 36 36 34 27 22 18 16 16 21 28 30 32 29 31 33 31 29 26 33 34 35 30 31 30 29 35 32 35 46
55 58 60 58 52 49 45 42 49 48 48 46 43 40 35 35 33 29 27 26 31 36 37 35 34 33 33 34 36 34 41 43 39 32 28 28 27 28 29 30 30 29 34
58 62 64 61 54 53 47 42 46 44 44 44 46 45 44 40 37 35 37 41 43 43 39 39 40 36 30 26 29 34 34 35 30 27 25 25 27 31 35 34 34 33 32
63 59 57 56 54 55 50 44 47 49 47 44 48 51 50 48 47 44 43 42 37 30 24 29 26 25 26 26 24 25 25 23 24 24 26 28 30 30 30 33 35 38 40
57 54 51 50 50 50 48 46 46 48 47 47 47 46 40 43 43 41 36 29 19 26 22 27 27 28 30 23 23 27 28 25 25 25 27 29 30 32 31 30 34 36 37
54 50 45 43 44 46 47 45 48 48 48 46 43 42 18 21 22 25 19 19 27 27 28 29 27 21 17 17 21 21 20 20 21 21 20 19 18 19 22 24 27 28 30
47 42 37 36 40 43 42 46 49 50 47 45 43 45 48 47 21 17 31 33 32 28 26 24 22 19 19 21 22 22 18 12 9 10 12 15 18 21 23 25 27 29 31
40 34 32 34 38 41 46 46 48 49 52 48 47 49 47 45 51 38 32 37 39 37 30 25 22 22 21 18 13 6 2 4 8 12 14 17 20 22 24 26 29 30 31
33 28 28 32 36 39 41 43 50 54 52 48 51 45 41 45 47 43 37 48 47 35 32 28 23 18 15 11 9 6 2 4 7 10 13 17 21 24 26 28 30 31 33
30 30 33 35 37 39 43 40 40 43 39 39 41 41 42 48 51 48 53 57 48 36 29 30 23 17 13 11 8 5 4 3 6 10 14 18 20 23 26 27 29 30 32
35 35 35 37 38 39 37 41 46 48 48 52 52 55 49 45 49 47 52 53 38 39 40 35 30 21 17 15 12 7 4 1 5 9 13 16 22 26 30 34 35 35 37
42 42 42 43 45 47 49 51 54 58 59 55 54 51 45 44 43 44 46 47 48 44 47 45 34 33 24 17 12 8 5 3 6 11 15 18 22 25 28 31 33 35 36
47 48 50 51 50 51 53 53 53 50 46 45 43 42 41 42 43 42 43 46 47 47 44 46 46 36 28 21 16 12 8 5 6 11 15 18 22 25 29 30 33 34 38
50 51 51 52 51 50 48 46 43 42 41 41 40 40 41 40 40 39 39 40 44 47 41 48 47 38 30 25 19 13 9 7 7 11 15 18 22 27 30 34 37 40 42
55 53 53 54 51 48 46 44 43 42 43 44 44 43 43 42 41 39 38 39 42 45 41 43 47 39 31 26 21 15 11 10 11 13 17 21 26 29 31 34 37 40 42
59 58 59 56 52 49 48 47 46 46 46 46 45 44 43 42 43 43 44 44 44 43 42 43 44 39 33 29 22 16 12 9 10 10 12 18 20 24 27 30 35 38 41
66 63 62 57 55 55 54 53 51 49 49 48 48 47 46 45 46 47 48 47 45 44 42 40 40 38 33 28 23 18 13 12 12 10 13 19 21 23 25 29 33 36 40
71 69 66 62 60 60 59 57 54 53 52 51 50 50 50 51 52 51 49 47 44 42 40 38 36 34 29 24 20 17 13 15 21 13 14 23 23 21 25 30 31 34 38
76 74 71 67 64 63 60 59 57 55 54 54 54 52 52 51 52 51 51 46 41 38 37 34 31 29 25 22 19 17 16 17 21 27 25 25 24 19 28 32 32 33 35
80 79 75 71 69 67 62 63 59 57 56 55 54 53 51 49 47 42 45 41 36 34 33 30 29 27 21 17 17 16 18 21 25 31 32 30 20 23 29 31 28 23 36
85 82 78 75 72 69 66 69 64 58 57 56 53 51 49 50 48 43 39 36 35 32 29 28 25 21 17 14 15 15 18 20 27 30 35 27 37 36 34 25 16 20 46
82 84 79 75 74 69 69 71 67 60 58 59 58 54 49 47 43 42 43 40 37 31 27 24 21 17 16 13 15 17 19 20 25 32 30 38 44 50 37 20 17 47 46
70 78 79 77 74 69 68 71 68 59 61 62 60 56 53 47 42 43 42 42 36 32 29 25 19 15 16 17 19 19 22 24 25 27 27 39 42 49 30 21 44 47 43
Wind_Direction_850mb
282 280 282 280 281 277 276 275 274 273 274 275 276 278 279 281 282 282 282 283 287 292 295 303 308 300 306 302 297 293 291 293 293 294 293 292 290 291 295 291 289 288 285
285 284 283 282 279 276 275 273 271 271 272 272 274 277 278 277 277 277 279 283 287 291 301 300 289 293 291 289 290 294 294 299 301 304 303 302 298 289 291 293 289 286 286
283 282 281 279 278 274 272 272 272 273 273 273 274 274 274 274 274 278 282 287 290 300 298 284 282 284 281 283 286 285 296 295 298 296 301 298 303 308 311 306 307 304 279
279 278 278 278 277 271 270 267 271 274 276 281 288 286 286 285 290 287 285 304 307 286 266 268 273 278 282 289 291 293 296 293 292 296 301 304 302 309 317 327 326 321 318
279 278 276 275 270 263 262 266 271 269 272 274 278 281 283 286 288 286 282 278 274 269 267 266 264 266 269 271 284 287 283 287 293 303 308 313 315 314 311 316 323 329 329
280 278 276 273 265 258 259 256 267 274 274 275 276 274 275 277 276 276 272 268 270 269 267 264 268 273 270 266 274 274 277 291 298 305 313 315 316 316 316 317 318 320 319
284 281 276 270 263 255 255 257 258 263 269 276 270 272 273 270 267 270 270 267 267 264 241 260 249 252 259 260 274 285 296 298 299 305 312 315 316 319 315 314 314 314 323
284 279 274 266 260 255 256 261 261 262 262 265 267 273 274 277 266 269 264 250 223 223 226 219 225 243 263 268 275 287 293 294 295 303 307 311 317 313 316 311 316 320 322
283 278 270 259 253 248 254 257 258 260 267 269 265 262 254 238 246 235 221 228 222 222 220 229 246 241 251 268 280 292 295 297 307 312 320 332 339 345 351 352 349 348 346
282 276 268 258 252 252 248 251 255 256 258 262 268 267 265 257 214 179 163 184 199 216 221 226 226 239 257 271 281 285 292 311 336 355 358 3 9 9 7 4 1 357 354
278 271 263 259 256 253 253 256 257 257 263 261 258 264 266 262 240 229 185 199 199 197 202 218 228 240 256 268 279 276 308 357 13 20 19 18 16 13 10 7 6 3 2
277 268 259 256 258 260 261 259 263 261 257 260 256 252 256 244 240 234 219 197 200 188 197 208 224 239 243 239 214 191 147 49 26 16 12 16 13 11 10 9 8 8 5
279 264 262 262 264 268 264 257 264 261 260 257 263 261 260 254 254 241 232 207 197 198 202 216 217 214 215 206 189 170 145 72 28 14 12 12 6 5 6 8 9 10 6
277 273 267 262 265 272 262 264 264 267 268 269 268 262 258 254 252 242 229 219 203 201 208 216 211 207 202 200 193 182 164 74 15 10 8 7 3 3 2 3 3 3 358
283 279 274 267 263 263 264 263 263 263 262 260 256 253 245 244 242 237 234 225 224 213 211 214 210 208 205 203 203 200 221 292 348 356 357 360 360 0 360 359 357 355 353
276 276 274 273 269 266 264 263 261 259 254 250 248 247 246 244 243 240 234 229 226 226 214 210 206 202 201 203 212 222 239 290 336 339 342 348 351 353 354 353 349 347 345
273 272 272 269 267 265 264 261 256 253 250 249 248 246 244 242 239 236 229 223 217 217 219 205 200 199 200 206 215 222 242 279 318 335 333 343 351 349 350 345 343 342 341
272 272 269 266 263 261 258 255 252 251 251 250 249 246 242 240 236 232 225 215 208 208 210 204 198 200 204 213 220 229 250 285 315 322 325 336 343 342 341 337 334 334 331
270 270 266 264 261 257 255 253 253 253 253 252 250 247 245 241 236 228 220 213 207 206 207 206 202 203 209 216 222 227 241 266 292 308 317 326 332 333 328 325 327 326 323
270 268 265 261 258 256 254 254 254 253 252 250 247 244 241 238 235 230 224 216 211 208 206 205 206 208 215 223 228 230 240 269 290 292 312 325 328 323 316 318 320 320 317
269 267 263 259 256 255 255 256 254 251 249 247 244 241 238 236 233 229 225 221 218 214 211 211 212 214 221 233 244 256 276 300 304 305 317 318 323 319 314 316 317 317 317
267 264 261 258 256 255 255 254 251 249 246 242 240 238 237 237 235 231 229 226 226 224 221 219 221 223 227 240 261 283 302 308 310 303 319 313 317 310 317 316 318 318 317
264 263 261 258 256 255 254 252 248 245 242 241 241 239 237 234 232 230 232 228 225 226 227 230 231 234 236 248 268 289 308 316 314 310 318 324 315 323 320 318 316 315 327
264 262 259 256 254 252 250 250 246 241 239 238 237 234 236 239 237 231 231 225 225 226 225 227 230 239 248 259 275 296 311 323 321 317 325 326 323 334 335 324 317 327 336
265 262 261 258 254 250 248 248 246 240 237 234 233 231 229 232 231 230 237 235 230 228 232 236 238 248 267 284 291 305 312 315 321 318 325 327 327 332 336 318 318 335 337
270 265 261 257 253 248 243 244 245 236 233 229 226 227 229 226 235 237 234 234 233 232 233 238 246 258 276 285 294 305 311 317 325 317 313 324 326 334 332 305 321 329 335